Weather History for San Juan, PR

Change the Weather History Date:

Wednesday, October 19, 2011

  Actual Average Record
Temperature  
Mean Temperature 82 °F 83 °F  
Max Temperature 88 °F 88 °F 94 °F (1978)
Min Temperature 75 °F 77 °F 70 °F (1959)
Degree Days  
Heating Degree Days 0 0  
Month to date heating degree days 0 0  
Since 1 July heating degree days 0 0  
Cooling Degree Days 17 18  
Month to date cooling degree days 333 342  
Year to date cooling degree days 4544 4754  
Growing Degree Days 31 (Base 50)    
Moisture  
Dew Point 73 °F    
Average Humidity 74    
Maximum Humidity 88    
Minimum Humidity 59    
Precipitation  
Precipitation 0.00 in 0.19 in 1.15 in (1995)
Month to date precipitation 3.57 3.17  
Year to date precipitation 73.28 42.56  
Snow  
Snow 0.00 in - - ()
Month to date snowfall 0.0  
Since 1 July snowfall 0.0  
Since 1 September snowfall 0.0  
Snow Depth 0.00 in    
Sea Level Pressure  
Sea Level Pressure 29.95 in    
Wind  
Wind Speed 6 mph (East)    
Max Wind Speed 20 mph    
Max Gust Speed 24 mph    
Visibility 10 miles    
Events      
T = Trace of Precipitation, MM = Missing Value Source: NWS Daily Summary

Daily Weather History Graph

Daily Weather History Graph

Search for Another Location

Airport:

Trip Planner

Search our weather history database for the weather conditions in past years. The results will help you decide how hot, cold, wet, or windy it might be!

Date:

Astronomy

Oct. 19, 2011 Rise Set
Actual Time 6:18 AM AST 5:58 PM AST
Civil Twilight 5:56 AM AST 6:21 PM AST
Nautical Twilight 5:31 AM AST 6:46 PM AST
Astronomical Twilight 5:05 AM AST 7:11 PM AST
Moon 11:59 PM AST (10/19) 12:24 PM AST (10/19)
Length of Visible Light 12h 24m
Length of Day
11h 40m
Waning Gibbous, 55% of the Moon is Illuminated
Oct 19
Waning Gibbous
Oct 19
Last Quarter
Oct 26
New
Nov 2
First Quarter
Nov 10
Full

Hourly Weather History & Observations

Time (AST) Temp. Heat Index Dew Point Humidity Pressure Visibility Wind Dir Wind Speed Gust Speed Precip Events Conditions
12:56 AM 78.1 °F - 72.0 °F 81% 29.95 in 10.0 mi Calm Calm - N/A   Partly Cloudy
1:56 AM 78.1 °F - 72.0 °F 81% 29.94 in 10.0 mi Calm Calm - N/A   Partly Cloudy
2:56 AM 77.0 °F - 73.0 °F 88% 29.94 in 10.0 mi Calm Calm - N/A   Partly Cloudy
3:56 AM 77.0 °F - 73.0 °F 88% 29.93 in 10.0 mi Calm Calm - N/A   Partly Cloudy
4:56 AM 75.9 °F - 72.0 °F 87% 29.93 in 10.0 mi Calm Calm - N/A   Partly Cloudy
5:56 AM 75.9 °F - 71.1 °F 85% 29.94 in 10.0 mi Calm Calm - N/A   Scattered Clouds
6:56 AM 77.0 °F - 71.1 °F 82% 29.95 in 10.0 mi Calm Calm - N/A   Scattered Clouds
7:56 AM 80.1 °F 83.6 °F 71.1 °F 74% 29.96 in 10.0 mi Calm Calm - N/A   Scattered Clouds
8:09 AM 82.4 °F 87.2 °F 71.6 °F 70% 29.96 in 10.0 mi ESE 3.5 mph - N/A   Scattered Clouds
8:56 AM 82.9 °F 88.8 °F 73.0 °F 72% 29.97 in 10.0 mi East 9.2 mph - N/A   Scattered Clouds
9:56 AM 84.9 °F 92.1 °F 73.9 °F 69% 29.99 in 10.0 mi East 12.7 mph - N/A   Scattered Clouds
10:56 AM 87.1 °F 92.8 °F 71.1 °F 59% 29.98 in 10.0 mi ENE 11.5 mph - N/A   Scattered Clouds
11:56 AM 87.1 °F 95.4 °F 73.9 °F 65% 29.96 in 10.0 mi NE 12.7 mph - N/A   Scattered Clouds
12:56 PM 87.1 °F 95.4 °F 73.9 °F 65% 29.93 in 10.0 mi ENE 15.0 mph - N/A   Scattered Clouds
1:56 PM 86.0 °F 93.8 °F 73.9 °F 67% 29.91 in 10.0 mi ENE 17.3 mph - N/A   Scattered Clouds
2:56 PM 86.0 °F 93.0 °F 73.0 °F 65% 29.91 in 10.0 mi ENE 15.0 mph 23.0 mph N/A   Scattered Clouds
3:56 PM 84.9 °F 92.1 °F 73.9 °F 69% 29.91 in 10.0 mi ENE 15.0 mph - N/A   Scattered Clouds
4:56 PM 84.0 °F 90.2 °F 73.0 °F 69% 29.91 in 10.0 mi East 12.7 mph - N/A   Scattered Clouds
5:56 PM 82.0 °F 87.4 °F 73.0 °F 74% 29.91 in 10.0 mi East 10.4 mph - N/A   Scattered Clouds
6:56 PM 82.0 °F 87.4 °F 73.0 °F 74% 29.93 in 10.0 mi East 6.9 mph - N/A   Scattered Clouds
7:56 PM 82.0 °F 87.4 °F 73.0 °F 74% 29.95 in 10.0 mi East 3.5 mph - N/A   Scattered Clouds
8:56 PM 82.0 °F 87.4 °F 73.0 °F 74% 29.98 in 10.0 mi East 4.6 mph - N/A   Scattered Clouds
9:56 PM 81.0 °F 85.8 °F 73.0 °F 77% 29.99 in 10.0 mi Calm Calm - N/A   Scattered Clouds
10:56 PM 81.0 °F 85.8 °F 73.0 °F 77% 30.00 in 10.0 mi Calm Calm - N/A   Scattered Clouds
11:56 PM 79.0 °F - 72.0 °F 79% 30.00 in 10.0 mi East 3.5 mph - N/A   Scattered Clouds